Wind_Speed
6 6 6 8 9 9 10 12 13 13 14 14 13 14 15 17 19 22 24 25 27 26 25 22 21 22 21 23 24 25 26 26 27 28 29 30 30 31 32 32 32 33 33 34
6 6 6 8 9 9 9 10 11 12 12 13 13 14 16 18 20 22 24 24 24 22 21 19 19 20 20 21 23 25 26 27 28 29 30 31 32 33 34 34 34 34 34 35
5 6 7 9 10 10 10 10 10 11 11 11 12 14 15 17 18 18 19 19 18 18 16 15 15 17 19 21 22 23 25 27 28 30 32 33 33 34 34 34 35 35 35 35
5 6 7 9 9 10 10 11 11 11 11 11 12 13 13 14 15 14 13 14 14 13 13 13 15 17 19 21 22 23 25 27 28 30 32 33 34 34 35 35 35 36 36 36
4 6 6 8 9 9 10 11 12 12 12 12 12 12 11 13 13 10 10 11 10 10 12 14 15 17 18 20 22 24 25 27 28 30 31 32 33 34 35 35 36 36 36 36
5 6 6 7 7 8 9 10 11 10 11 10 10 10 10 11 9 8 8 7 8 9 11 12 14 16 18 20 22 24 26 28 29 30 31 32 33 34 35 36 36 37 37 37
6 5 6 7 7 7 8 8 8 9 9 8 8 8 9 8 7 6 6 6 7 9 11 13 15 17 19 21 24 26 27 29 30 31 32 33 34 34 35 36 36 37 37 38
5 5 6 6 7 7 7 6 8 9 8 7 7 8 7 7 7 7 7 8 9 10 12 14 16 18 21 23 25 27 29 30 31 32 33 34 34 35 36 36 36 37 37 37
6 5 6 6 7 6 5 6 7 7 6 6 6 6 7 7 8 8 9 9 11 12 14 16 19 21 23 25 27 29 30 32 33 34 34 34 35 36 36 37 37 37 37 37
6 6 5 6 6 6 6 7 7 6 5 5 5 6 6 7 8 9 10 11 13 14 17 19 22 24 26 28 30 31 33 34 34 35 35 35 36 37 37 37 37 37 36 36
5 5 5 5 5 6 5 5 5 4 5 5 5 6 7 8 9 10 12 13 15 17 19 21 24 26 28 30 32 33 34 36 36 37 37 37 37 38 37 37 36 36 36 35
5 5 4 4 4 5 5 5 5 5 6 6 7 7 8 9 11 13 14 15 17 19 21 24 26 28 30 32 33 35 36 37 38 38 38 38 39 38 38 37 36 36 36 36
5 5 4 4 4 5 5 5 6 6 7 7 8 9 10 12 13 15 16 17 19 21 24 26 28 30 32 34 36 37 38 38 39 39 39 40 40 39 39 38 38 37 37 37
6 6 5 6 6 6 5 6 7 8 8 9 9 10 12 13 15 16 17 19 21 23 25 27 30 33 35 36 38 39 39 39 40 40 40 41 40 40 40 39 39 38 38 37
7 7 7 7 7 7 7 7 8 10 10 11 11 12 14 15 16 18 19 21 23 25 27 30 32 35 36 38 39 39 40 40 40 41 42 41 41 41 41 40 40 39 38 37
8 8 8 8 8 8 8 8 9 11 12 12 13 14 16 17 18 19 21 22 25 27 29 32 34 36 37 39 40 40 41 41 42 42 42 42 42 42 41 40 39 39 37 36
9 9 9 9 9 8 7 7 9 10 12 13 15 16 17 18 19 20 22 24 26 28 30 33 35 36 38 39 40 41 41 42 42 43 43 42 42 42 42 41 40 39 37 36
9 10 10 9 9 8 8 8 9 11 12 14 15 16 17 18 19 21 23 25 27 29 31 33 35 37 39 40 41 41 42 42 43 43 43 43 43 42 42 41 40 39 38 36
10 10 10 9 8 8 9 10 11 12 12 14 15 16 17 19 20 22 24 26 28 30 32 34 36 38 39 40 42 42 42 43 44 44 44 43 43 42 41 40 40 39 37 36
10 10 10 9 9 8 8 10 11 12 12 14 15 16 18 19 21 22 25 27 28 30 33 35 37 38 39 41 42 43 43 44 44 44 44 44 43 41 40 40 39 38 37 36
12 12 11 11 10 10 10 11 12 13 14 14 16 17 19 20 22 24 25 27 29 31 33 35 37 39 40 41 42 43 43 44 44 44 44 43 42 41 40 39 39 38 36 35
14 14 13 13 12 12 13 13 14 15 15 16 17 19 20 22 23 24 26 28 30 32 34 36 38 39 40 42 43 44 44 44 44 44 44 43 42 41 40 39 39 37 36 34
14 14 14 13 14 14 14 15 16 16 17 18 19 20 22 23 24 25 27 28 30 32 34 36 38 39 40 42 43 44 44 44 44 44 44 43 42 41 40 39 38 37 35 33
15 15 15 15 14 15 16 17 17 18 18 19 20 21 22 23 24 25 27 29 31 33 35 37 38 39 41 43 44 44 44 44 45 44 43 42 41 41 40 39 38 36 34 33
16 17 17 16 15 16 17 18 18 19 19 20 21 22 23 24 25 26 27 29 31 33 36 38 39 40 42 43 43 44 45 44 44 44 43 42 41 41 39 38 37 35 34 32
18 19 19 18 17 18 18 19 19 20 21 22 22 23 24 25 26 27 28 30 32 34 36 38 39 41 42 43 44 44 45 45 44 43 42 42 41 40 39 37 36 35 33 31
Wind_Direction
297 279 258 249 240 236 230 231 233 239 245 252 259 268 276 283 290 291 293 295 297 295 293 291 292 294 298 299 300 299 300 301 300 300 301 300 299 297 296 294 292 291 290 288
287 274 256 245 236 235 234 238 242 249 259 261 268 277 284 291 294 291 290 292 294 292 293 292 294 297 300 304 302 300 302 303 303 303 302 301 300 299 298 295 293 292 291 289
281 267 247 245 239 238 246 250 253 260 266 276 282 287 292 296 296 293 290 291 294 295 298 299 299 301 304 306 305 304 307 308 307 306 304 303 301 300 299 297 294 293 291 290
275 260 254 247 244 249 258 262 269 276 280 289 299 302 302 303 307 305 296 294 296 298 301 301 302 303 305 306 308 308 309 309 308 306 304 302 301 300 299 297 295 293 291 290
276 262 256 255 251 255 270 273 275 282 288 294 304 309 311 309 308 307 300 299 298 300 305 304 304 305 307 308 310 310 310 310 310 308 306 304 302 300 298 296 294 293 292 290
280 276 269 263 256 260 277 280 282 289 289 297 307 312 316 314 311 312 309 309 308 306 311 311 310 310 310 311 312 313 313 313 312 311 309 306 303 301 299 297 295 293 291 289
288 275 269 271 267 264 280 287 291 294 293 297 302 306 319 325 323 322 318 307 308 311 313 317 316 315 316 317 318 319 318 316 315 313 311 309 306 303 301 299 297 294 291 289
288 276 267 270 265 271 280 289 294 295 295 297 295 300 316 327 326 323 316 311 312 317 320 322 322 322 323 323 323 322 321 319 317 315 313 310 308 306 304 301 298 296 293 289
281 273 262 266 269 275 283 291 295 292 291 293 295 303 306 315 315 316 316 317 320 324 326 327 328 328 328 327 327 326 324 322 320 318 315 313 311 309 307 304 301 298 295 291
281 273 264 274 277 278 282 294 290 286 300 301 300 308 311 312 313 317 320 324 327 327 329 330 331 331 330 330 329 327 325 324 323 321 319 317 315 313 310 307 304 301 298 294
279 277 275 277 281 282 281 288 292 293 301 309 306 311 313 315 317 319 323 327 329 330 331 332 333 332 331 330 329 328 327 327 326 325 323 321 319 317 315 311 307 304 300 296
278 281 276 268 273 280 283 289 296 300 306 310 311 316 314 314 316 320 325 329 331 332 334 335 334 334 333 332 332 331 330 329 328 327 326 324 322 320 318 315 311 307 302 299
275 275 268 260 273 277 285 296 302 306 309 313 316 321 317 317 319 325 329 332 334 335 336 337 337 337 336 335 335 334 332 331 330 328 327 326 324 322 320 316 312 309 304 300
272 273 273 272 278 282 284 298 306 309 312 317 321 323 324 324 326 330 333 335 335 336 338 339 339 338 338 338 337 335 334 332 331 330 329 327 325 323 321 317 314 310 307 303
273 274 280 285 288 290 289 291 301 311 317 321 325 326 327 329 331 334 336 336 338 339 340 340 341 340 339 338 337 336 335 334 333 332 330 329 327 326 323 319 316 313 310 306
271 277 283 288 291 293 290 290 297 309 314 319 324 326 327 329 332 334 336 338 340 341 341 342 341 340 339 338 338 337 336 336 335 334 333 331 329 328 325 323 320 317 313 310
267 273 284 292 295 296 298 295 297 305 311 316 321 324 327 330 332 335 337 339 340 341 341 341 340 339 339 339 339 338 337 337 336 335 334 333 331 329 328 325 323 320 317 313
261 269 281 293 299 299 302 300 302 306 310 315 319 322 326 329 332 335 337 339 340 340 340 340 340 340 340 340 340 339 338 338 338 337 335 334 332 331 329 328 326 323 320 317
263 271 281 290 295 298 297 299 301 305 311 315 319 323 326 329 332 334 336 338 339 340 340 340 340 340 341 341 341 341 340 339 339 338 336 335 334 332 331 330 328 326 323 320
262 270 279 286 287 294 300 303 304 308 312 316 320 323 326 329 331 333 335 336 338 339 339 339 340 341 341 342 342 342 341 340 340 339 338 336 335 334 333 332 331 330 327 323
261 269 276 283 288 295 299 306 308 311 316 317 320 323 326 329 331 332 333 335 337 338 339 339 340 341 342 342 342 342 342 341 340 340 339 338 337 337 335 335 334 333 331 328
262 266 270 277 286 291 294 302 309 313 315 317 320 323 325 327 329 330 332 334 336 338 339 339 340 341 342 343 343 343 343 342 342 341 341 340 339 339 338 337 336 335 335 334
263 265 268 273 283 289 296 301 306 309 311 313 317 320 322 324 326 328 330 333 336 337 338 339 340 341 342 343 344 344 344 343 343 342 342 341 341 340 340 339 339 338 338 337
266 269 272 276 282 288 292 296 301 303 306 310 314 316 319 321 323 326 329 331 334 336 337 338 339 340 341 343 344 345 345 344 344 344 343 343 342 342 341 341 341 341 340 339
270 272 275 279 281 282 287 292 296 299 302 306 309 312 315 318 321 324 327 330 332 334 336 337 338 339 340 342 343 344 345 344 344 344 344 344 344 344 343 343 344 344 343 341
270 272 275 277 278 281 286 289 293 296 298 302 306 310 313 315 319 323 325 328 329 332 334 336 337 339 340 341 342 343 344 344 345 345 345 344 344 345 345 345 345 345 345 345
Height
5855 5856 5855 5855 5855 5856 5857 5857 5858 5859 5860 5861 5861 5862 5862 5862 5861 5860 5858 5856 5855 5853 5851 5849 5848 5847 5845 5843 5841 5840 5838 5836 5834 5832 5829 5827 5825 5823 5822 5820 5818 5816 5815 5813
5856 5856 5855 5855 5855 5855 5856 5857 5857 5859 5859 5859 5859 5860 5859 5858 5856 5855 5853 5852 5850 5848 5846 5845 5844 5843 5842 5839 5838 5836 5833 5831 5829 5826 5824 5821 5819 5816 5814 5812 5810 5808 5806 5804
5855 5855 5854 5854 5855 5855 5856 5857 5857 5858 5857 5857 5857 5857 5856 5854 5852 5850 5848 5847 5846 5845 5843 5841 5841 5840 5839 5837 5835 5832 5829 5826 5823 5820 5817 5814 5811 5808 5806 5804 5801 5799 5797 5795
5854 5854 5854 5854 5855 5855 5856 5856 5856 5856 5856 5855 5856 5854 5853 5851 5848 5846 5845 5844 5843 5842 5840 5839 5838 5837 5836 5833 5831 5828 5824 5821 5818 5814 5811 5808 5804 5801 5798 5795 5793 5790 5788 5786
5855 5854 5854 5854 5854 5855 5855 5855 5855 5855 5854 5854 5853 5852 5851 5848 5846 5844 5843 5842 5841 5840 5839 5837 5836 5834 5832 5830 5827 5824 5820 5816 5813 5809 5805 5801 5797 5794 5790 5787 5784 5781 5779 5776
5855 5854 5854 5853 5853 5854 5854 5854 5853 5853 5853 5853 5851 5850 5849 5846 5845 5843 5842 5841 5840 5839 5838 5835 5834 5832 5829 5826 5823 5820 5816 5811 5807 5803 5798 5794 5790 5787 5783 5779 5776 5773 5769 5766
5855 5854 5854 5853 5853 5853 5853 5853 5853 5852 5851 5851 5850 5849 5848 5845 5844 5842 5841 5840 5839 5837 5836 5833 5831 5829 5826 5822 5818 5814 5810 5805 5801 5796 5792 5787 5783 5779 5774 5771 5767 5763 5760 5756
5854 5854 5853 5853 5852 5852 5852 5852 5853 5852 5851 5850 5849 5848 5848 5845 5843 5842 5841 5839 5838 5836 5834 5831 5828 5825 5822 5818 5813 5809 5804 5799 5794 5789 5784 5780 5775 5770 5765 5761 5757 5753 5749 5746
5853 5853 5853 5852 5851 5851 5851 5851 5851 5851 5850 5849 5848 5848 5846 5844 5843 5841 5839 5838 5835 5833 5830 5828 5824 5821 5817 5812 5808 5803 5798 5793 5788 5782 5777 5772 5766 5761 5756 5751 5746 5742 5738 5735
5852 5852 5851 5851 5850 5850 5850 5850 5849 5849 5848 5847 5847 5846 5845 5843 5841 5840 5838 5835 5833 5830 5827 5824 5820 5816 5811 5807 5802 5797 5792 5786 5780 5775 5769 5763 5757 5752 5746 5741 5736 5731 5727 5724
5851 5851 5850 5850 5849 5849 5849 5849 5848 5847 5847 5846 5845 5847 5844 5841 5839 5837 5835 5833 5830 5827 5824 5820 5816 5811 5806 5801 5796 5790 5785 5779 5772 5766 5760 5754 5748 5742 5736 5731 5725 5721 5717 5713
5850 5849 5849 5849 5848 5848 5847 5847 5847 5847 5846 5844 5844 5846 5841 5839 5837 5835 5833 5830 5827 5823 5819 5815 5811 5806 5801 5795 5790 5784 5777 5771 5764 5758 5751 5745 5739 5733 5726 5721 5716 5711 5706 5702
5849 5848 5848 5848 5849 5848 5846 5846 5845 5845 5844 5843 5842 5843 5839 5836 5834 5832 5829 5826 5823 5819 5815 5810 5805 5800 5795 5789 5783 5776 5770 5763 5757 5750 5744 5737 5730 5724 5717 5712 5706 5701 5696 5691
5847 5847 5847 5847 5847 5846 5845 5845 5844 5843 5842 5841 5839 5838 5836 5833 5831 5828 5825 5822 5818 5814 5810 5805 5800 5795 5789 5783 5776 5770 5763 5757 5750 5743 5736 5729 5722 5715 5708 5702 5696 5690 5685 5680
5845 5845 5845 5845 5844 5844 5843 5843 5842 5841 5840 5838 5837 5835 5833 5830 5828 5825 5821 5818 5814 5810 5805 5800 5795 5789 5783 5777 5771 5764 5757 5750 5742 5735 5728 5720 5713 5706 5699 5692 5686 5680 5674 5669
5843 5843 5843 5843 5842 5841 5841 5840 5839 5838 5837 5835 5834 5832 5830 5827 5824 5821 5818 5814 5810 5805 5800 5795 5790 5784 5778 5772 5765 5758 5750 5743 5736 5728 5720 5713 5705 5698 5690 5683 5676 5669 5663 5658
5841 5841 5841 5841 5840 5839 5839 5838 5837 5836 5834 5833 5831 5830 5826 5824 5820 5817 5814 5810 5806 5801 5796 5791 5786 5780 5773 5766 5759 5752 5744 5737 5729 5721 5713 5705 5697 5689 5682 5674 5667 5660 5653 5647
5839 5839 5839 5838 5838 5837 5838 5835 5834 5833 5832 5830 5828 5826 5823 5820 5817 5814 5810 5806 5802 5797 5792 5787 5781 5775 5768 5761 5754 5746 5738 5731 5722 5714 5706 5698 5690 5681 5673 5665 5658 5651 5644 5638
5836 5837 5836 5836 5835 5835 5835 5833 5831 5830 5829 5827 5825 5822 5819 5816 5814 5810 5806 5802 5798 5793 5788 5783 5777 5770 5763 5756 5749 5741 5733 5724 5716 5708 5699 5691 5682 5674 5666 5658 5650 5642 5635 5628
5834 5834 5835 5834 5833 5833 5833 5831 5828 5828 5826 5824 5821 5819 5816 5813 5810 5807 5803 5798 5794 5789 5784 5778 5772 5766 5758 5751 5743 5735 5727 5719 5710 5701 5693 5684 5675 5667 5659 5651 5642 5634 5627 5620
5831 5831 5831 5831 5830 5830 5829 5827 5826 5825 5824 5821 5818 5815 5812 5809 5806 5803 5798 5794 5790 5785 5780 5774 5768 5761 5754 5746 5738 5730 5722 5713 5704 5696 5687 5678 5669 5661 5653 5644 5636 5628 5620 5612
5827 5828 5828 5828 5827 5828 5825 5823 5822 5821 5818 5816 5813 5811 5808 5805 5802 5798 5794 5790 5785 5780 5775 5769 5763 5756 5749 5741 5733 5725 5717 5708 5699 5690 5681 5672 5664 5655 5647 5638 5630 5621 5613 5606
5823 5824 5824 5824 5825 5823 5821 5819 5818 5816 5814 5812 5809 5806 5804 5801 5797 5794 5790 5785 5781 5776 5770 5764 5758 5751 5744 5736 5728 5720 5712 5703 5694 5685 5676 5667 5658 5650 5641 5633 5624 5616 5608 5601
5820 5819 5819 5819 5819 5818 5816 5815 5813 5811 5809 5807 5805 5802 5800 5796 5793 5789 5785 5781 5776 5771 5766 5760 5753 5747 5740 5732 5724 5715 5707 5698 5690 5681 5672 5663 5654 5646 5637 5628 5620 5612 5604 5596
5815 5814 5814 5814 5814 5813 5812 5810 5809 5807 5805 5803 5801 5798 5795 5792 5788 5784 5780 5776 5771 5766 5761 5755 5749 5742 5735 5727 5719 5711 5703 5694 5685 5677 5668 5659 5651 5642 5633 5625 5616 5608 5600 5592
5810 5809 5808 5808 5808 5807 5807 5805 5804 5802 5800 5798 5795 5793 5790 5786 5783 5779 5775 5771 5766 5762 5756 5750 5744 5737 5730 5722 5715 5707 5698 5690 5681 5673 5664 5656 5647 5638 5630 5622 5613 5605 5598 5590